Location: Izdebno
(52.6670°N, 16.2170°E)
Time: 18:55:59
(UTC+02:00)

SR - Pass Details

Date: 03 March 2024
Orbit: 577 x 862 km, 66.7° (Epoch: 21 April)

Event Time Altitude Azimuth Distance (km) Brightness Sun altitude
Rises 21:59:13 0° 318° (NW) 3,228 ? -36.9°
Reaches altitude 10° 22:01:44 10° 314° (NW) 2,250 ? -37.1°
Enters shadow 22:03:37 22° 307° (NW) 1,560 ? -37.3°
Maximum altitude 22:06:41 53° 239° (WSW) 856 - -37.6°
Drops below altitude 10° 22:11:13 10° 163° (SSE) 2,055 - -38.0°
Sets 22:13:26 0° 159° (SSE) 2,920 - -38.2°
